Regional Weather Roundup
Issued by NWS

Home | Current Version | Previous Version | Text Only | Print | Product List | Glossary On
Versions: 1 2 3 4 5 6 7 8 9 10 11 12 13 14 15 16 17 18 19 20 21 22 23 24 25 26 27 28 29 30 31 32 33 34 35 36 37 38 39 40 41 42 43 44 45 46 47 48 49 50
000
ASUS43 KLSX 252107
RWRMO

WEATHER SUMMARY FOR MISSOURI
NATIONAL WEATHER SERVICE SPRINGFIELD MO
400 PM CDT WED APR 25 2018

NOTE: "FAIR" INDICATES FEW OR NO CLOUDS BELOW 12,000 FEET WITH NO
       SIGNIFICANT WEATHER AND/OR OBSTRUCTIONS TO VISIBILITY.
       CURRENT SKY AND/OR WEATHER CONDITIONS ARE NOT AVAILABLE FOR
       CHILLICOTHE AND FARMINGTON.

MOZ001>031-035>038-043-044-053-054-252200-
...NORTHERN AND WESTERN MISSOURI...

CITY           SKY/WX    TMP DP  RH WIND       PRES   REMARKS
KANSAS CTY INT LGT RAIN  49  47  93 N13       30.10F
KANSAS C DTWN  LGT RAIN  50  46  86 N8        30.10F
LEE`S SUMMIT   LGT RAIN  49  48  97 N12       30.09F
ST JOSEPH      LGT RAIN  53  48  83 N8        30.11F
CHILLICOTHE      N/A     52  47  83 N3        30.11F
KIRKSVILLE     CLOUDY    56  44  64 NW5       30.07F

$$
MOZ066>068-077>081-088>096-101>105-252200-
...SOUTHWEST MISSOURI...

CITY           SKY/WX    TMP DP  RH WIND       PRES   REMARKS
SPRINGFIELD    LGT RAIN  55  50  83 SE3       30.04F
JOPLIN         LGT RAIN  56  53  90 CALM      30.04F FOG
BRANSON        LGT RAIN  54  54 100 CALM      30.05F FOG

$$
MOZ032>034-039>042-045>050-055>058-069>072-252200-
...CENTRAL MISSOURI...

CITY           SKY/WX    TMP DP  RH WIND       PRES   REMARKS
COLUMBIA       LGT RAIN  53  48  83 NW10      30.07S
JEFFERSON CITY LGT RAIN  56  46  69 NW12      30.06S
ROLLA          CLOUDY    58  44  60 W9        30.05S
SEDALIA        LGT RAIN  52  50  93 N8        30.09F
WHITEMAN AFB   LGT RAIN  51  49  93 N8        30.04F FOG
WARRENSBURG    LGT RAIN  48  46  93 N7        30.08F
OSAGE BEACH    LGT RAIN  56  51  84 W10       30.07F

$$
MOZ051-052-059>065-252200-
...EAST CENTRAL MISSOURI...

CITY           SKY/WX    TMP DP  RH WIND       PRES   REMARKS
ST LOUIS INTL  CLOUDY    64  53  67 N10       30.00F
SPIRIT OF STL  CLOUDY    66  51  58 N8        29.99F
ST CHARLES     CLOUDY    65  51  60 N8        30.00F

$$
MOZ072>076-082>087-097>100-106>115-252200-
...SOUTH CENTRAL AND SOUTHEAST MISSOURI...

CITY           SKY/WX    TMP DP  RH WIND       PRES   REMARKS
CAPE GIRARDEAU FAIR      68  53  58 W6        29.95F
FARMINGTON     CLOUDY    65  48  54 NW7       29.99F
POPLAR BLUFF   CLOUDY    66  50  56 SW8G18    29.98F
WEST PLAINS    CLOUDY    58  48  69 W10       30.05F

$$




USA.gov is the U.S. government's official web portal to all federal, state and local government web resources and services.